Gainesville, GA

6:08 PM EDT on October 01, 2016 (GMT -0400)
Gilmer Memorial

Weather History for KGVL - September, 2011

Change the Weather History Date:

Monday, September 5, 2011

  Actual Average Record
Temperature  
Mean Temperature 72 °F 75 °F  
Max Temperature 75 °F 84 °F 99 °F (1954)
Min Temperature 69 °F 66 °F 50 °F (1934)
Degree Days  
Heating Degree Days 0 0  
Month to date heating degree days 0  
Since 1 July heating degree days 0  
Cooling Degree Days 7 10  
Month to date cooling degree days 53  
Year to date cooling degree days 1379  
Growing Degree Days 22 (Base 50)    
Moisture  
Dew Point 71 °F    
Average Humidity 96    
Maximum Humidity 100    
Minimum Humidity 93    
Precipitation  
Precipitation 1.32 in 0.14 in 2.42 in (1970)
Month to date precipitation 0.67  
Year to date precipitation 36.92  
Sea Level Pressure  
Sea Level Pressure 29.73 in    
Wind  
Wind Speed 6 mph (SE)    
Max Wind Speed 16 mph    
Max Gust Speed 23 mph    
Visibility 5 miles    
Events Rain , Thunderstorm    
T = Trace of Precipitation, MM = Missing Value Source: NWS Daily Summary

Daily Weather History Graph

Daily Weather History Graph

Search for Another Location

Airport or City:

Trip Planner

Search our weather history database for the weather conditions in past years. The results will help you decide how hot, cold, wet, or windy it might be!

Date:

Astronomy

Sep. 05, 2011 Rise Set
Actual Time 7:11 AM EDT 7:56 PM EDT
Civil Twilight 6:45 AM EDT 8:21 PM EDT
Nautical Twilight 6:15 AM EDT 8:51 PM EDT
Astronomical Twilight 5:44 AM EDT 9:22 PM EDT
Moon 3:28 PM EDT (9/5) 12:39 AM EDT (9/5)
Length of Visible Light 13h 35m
Length of Day
12h 44m
First Quarter, 60% of the Moon is Illuminated
Sep 5
First Quarter
Sep 12
Full
Sep 20
Last Quarter
Sep 27
New
Oct 3
First Quarter

Hourly Weather History & Observations

Time (EDT) Temp. Dew Point Humidity Pressure Visibility Wind Dir Wind Speed Gust Speed Precip Events Conditions
12:02 AM 69.8 °F 68.0 °F 94% 29.93 in 9.0 mi South 3.5 mph - 0.00 in Rain Light Rain
12:53 AM 69.1 °F 68.0 °F 96% 29.87 in 10.0 mi ESE 3.5 mph - 0.00 in   Overcast
1:24 AM 69.8 °F 68.0 °F 94% 29.90 in 10.0 mi ESE 3.5 mph - N/A   Overcast
1:53 AM 70.0 °F 68.0 °F 93% 29.84 in 10.0 mi ESE 3.5 mph - N/A   Overcast
2:00 AM 69.8 °F 68.0 °F 94% 29.89 in 10.0 mi ESE 3.5 mph - N/A   Overcast
2:48 AM 69.8 °F 68.0 °F 94% 29.87 in 10.0 mi East 5.8 mph - N/A   Overcast
2:53 AM 70.0 °F 68.0 °F 93% 29.83 in 10.0 mi SE 4.6 mph - N/A   Overcast
3:53 AM 70.0 °F 68.0 °F 93% 29.81 in 10.0 mi ESE 3.5 mph - N/A   Overcast
4:43 AM 69.8 °F 68.0 °F 94% 29.85 in 7.0 mi SE 5.8 mph - 0.01 in Rain Light Rain
5:01 AM 69.8 °F 68.0 °F 94% 29.84 in 7.0 mi SE 5.8 mph - 0.00 in Rain Light Rain
5:18 AM 69.8 °F 68.0 °F 94% 29.84 in 6.0 mi ESE 5.8 mph - 0.00 in Rain Light Rain
5:36 AM 69.8 °F 68.0 °F 94% 29.83 in 5.0 mi SE 6.9 mph - 0.00 in Rain Light Rain
5:53 AM 69.1 °F 68.0 °F 96% 29.78 in 2.5 mi SE 8.1 mph - 0.00 in Rain Light Rain
6:03 AM 69.8 °F 69.8 °F 100% 29.83 in 2.0 mi ESE 5.8 mph - 0.01 in Rain Light Rain
6:09 AM 69.8 °F 68.0 °F 94% 29.83 in 1.5 mi SE 6.9 mph - 0.01 in Rain Light Rain
6:21 AM 69.8 °F 69.8 °F 100% 29.83 in 1.0 mi SE 5.8 mph - 0.01 in   Overcast
6:43 AM 69.8 °F 69.8 °F 100% 29.83 in 1.8 mi SE 6.9 mph - 0.01 in   Overcast
6:49 AM 69.8 °F 69.8 °F 100% 29.82 in 2.5 mi SE 4.6 mph - 0.01 in Rain Light Rain
6:53 AM 69.1 °F 69.1 °F 100% 29.78 in 2.5 mi SE 5.8 mph - 0.01 in Rain Light Rain
7:04 AM 69.8 °F 69.8 °F 100% 29.82 in 1.8 mi SE 4.6 mph - 0.00 in Rain Light Rain
7:12 AM 69.8 °F 69.8 °F 100% 29.82 in 1.0 mi SE 5.8 mph - 0.00 in Rain Light Rain
7:26 AM 69.8 °F 69.8 °F 100% 29.82 in 2.5 mi SE 5.8 mph - 0.00 in Rain Light Rain
7:35 AM 69.8 °F 69.8 °F 100% 29.82 in 3.0 mi SE 5.8 mph - 0.00 in Rain Light Rain
7:53 AM 69.1 °F 69.1 °F 100% 29.78 in 4.0 mi SE 5.8 mph - 0.01 in Rain Light Rain
8:07 AM 69.8 °F 69.8 °F 100% 29.82 in 4.0 mi SSE 6.9 mph - 0.00 in Rain Light Rain
9:42 AM 71.6 °F 69.8 °F 94% 29.81 in 6.0 mi SSE 6.9 mph - 0.02 in Rain Light Rain
9:53 AM 71.1 °F 70.0 °F 96% 29.77 in 6.0 mi SSE 6.9 mph - 0.03 in Rain Light Rain
10:07 AM 71.6 °F 69.8 °F 94% 29.81 in 7.0 mi South 8.1 mph - 0.00 in Rain Light Rain
10:53 AM 72.0 °F 70.0 °F 93% 29.76 in 5.0 mi South 5.8 mph - 0.00 in   Overcast
11:53 AM 73.0 °F 71.1 °F 93% 29.76 in 6.0 mi SSE 5.8 mph - 0.01 in Rain Light Rain
12:18 PM 73.4 °F 71.6 °F 94% 29.80 in 7.0 mi SSE 8.1 mph - 0.01 in Rain Light Rain
12:32 PM 73.4 °F 71.6 °F 94% 29.79 in 5.0 mi SE 6.9 mph - 0.01 in Rain Light Rain
12:53 PM 73.0 °F 71.1 °F 93% 29.75 in 5.0 mi SE 5.8 mph - 0.02 in Rain Light Rain
1:36 PM 73.4 °F 71.6 °F 94% 29.78 in 3.0 mi SSE 4.6 mph - 0.03 in Rain Light Rain
1:53 PM 73.0 °F 72.0 °F 96% 29.73 in 4.0 mi SE 4.6 mph - 0.04 in Rain Light Rain
2:25 PM 73.4 °F 71.6 °F 94% 29.76 in 4.0 mi SE 6.9 mph - 0.01 in Rain Light Rain
2:53 PM 73.9 °F 73.0 °F 97% 29.70 in 3.0 mi SE 6.9 mph - 0.06 in Rain Light Rain
3:07 PM 73.4 °F 73.4 °F 100% 29.74 in 5.0 mi ESE 6.9 mph - 0.00 in Rain Light Rain
3:20 PM 73.4 °F 73.4 °F 100% 29.73 in 4.0 mi SE 5.8 mph - 0.00 in   Overcast
3:53 PM 75.0 °F 73.0 °F 94% 29.67 in 4.0 mi ESE 4.6 mph - 0.01 in Rain Light Rain
4:13 PM 75.2 °F 73.4 °F 94% 29.70 in 5.0 mi ESE 4.6 mph - 0.00 in   Scattered Clouds
4:53 PM 75.0 °F 73.9 °F 96% 29.65 in 4.0 mi East 6.9 mph - 0.00 in Rain Light Rain
5:26 PM 75.2 °F 73.4 °F 94% 29.69 in 2.0 mi East 6.9 mph - 0.05 in Rain Heavy Rain
5:28 PM 75.2 °F 73.4 °F 94% 29.68 in 1.5 mi ENE 4.6 mph - 0.08 in Rain Heavy Rain
5:36 PM 75.2 °F 73.4 °F 94% 29.67 in 2.0 mi East 6.9 mph - 0.08 in Rain Light Rain
5:39 PM 75.2 °F 73.4 °F 94% 29.68 in 3.0 mi East 5.8 mph - 0.08 in Rain Light Rain
5:53 PM 73.9 °F 73.0 °F 97% 29.61 in 2.5 mi ENE 4.6 mph - 0.10 in Rain Light Rain
6:03 PM 75.2 °F 73.4 °F 94% 29.69 in 3.0 mi WSW 16.1 mph 20.7 mph 0.00 in   Overcast
6:14 PM 75.2 °F 73.4 °F 94% 29.68 in 0.8 mi South 10.4 mph 21.9 mph 0.28 in Rain Heavy Rain
6:18 PM 75.2 °F 73.4 °F 94% 29.67 in 1.2 mi Variable 6.9 mph - 0.34 in Rain Heavy Rain
6:25 PM 73.4 °F 73.4 °F 100% 29.69 in 4.0 mi South 9.2 mph 18.4 mph 0.34 in Rain , Thunderstorm Light Rain
6:35 PM 73.4 °F 71.6 °F 94% 29.68 in 1.5 mi South 9.2 mph 19.6 mph 0.46 in Rain , Thunderstorm Light Thunderstorms and Rain
6:46 PM 73.4 °F 71.6 °F 94% 29.69 in 1.2 mi South 9.2 mph 18.4 mph 0.58 in Rain Light Rain
6:48 PM 73.4 °F 71.6 °F 94% 29.69 in 4.0 mi South 8.1 mph 18.4 mph 0.58 in Rain Light Rain
6:53 PM 73.0 °F 71.1 °F 93% 29.65 in 10.0 mi SSE 11.5 mph - 0.58 in   Mostly Cloudy
7:20 PM 73.4 °F 71.6 °F 94% 29.68 in 10.0 mi SE 4.6 mph - N/A   Mostly Cloudy
7:42 PM 73.4 °F 71.6 °F 94% 29.67 in 10.0 mi SE 5.8 mph - 0.00 in   Overcast
7:53 PM 73.0 °F 72.0 °F 96% 29.62 in 10.0 mi ESE 6.9 mph - 0.00 in Rain Light Rain
8:23 PM 73.4 °F 71.6 °F 94% 29.65 in 10.0 mi ESE 10.4 mph 18.4 mph 0.00 in   Overcast
8:53 PM 73.9 °F 73.0 °F 97% 29.60 in 10.0 mi ESE 10.4 mph - 0.00 in Thunderstorm Overcast
9:06 PM 73.4 °F 73.4 °F 100% 29.64 in 2.0 mi SE 13.8 mph 21.9 mph 0.09 in Rain , Thunderstorm Heavy Thunderstorms and Rain
9:08 PM 73.4 °F 73.4 °F 100% 29.64 in 1.8 mi SE 13.8 mph 21.9 mph 0.12 in Rain , Thunderstorm Heavy Thunderstorms and Rain
9:14 PM 71.6 °F 71.6 °F 100% 29.64 in 1.5 mi SSE 11.5 mph 23.0 mph 0.25 in Rain , Thunderstorm Heavy Thunderstorms and Rain
9:18 PM 71.6 °F 71.6 °F 100% 29.64 in 2.0 mi SSE 8.1 mph 23.0 mph 0.25 in Rain , Thunderstorm Light Thunderstorms and Rain
9:22 PM 71.6 °F 71.6 °F 100% 29.63 in 6.0 mi SE 8.1 mph - 0.25 in Rain , Thunderstorm Light Rain
9:30 PM 71.6 °F 71.6 °F 100% 29.64 in 2.0 mi Variable 5.8 mph - 0.35 in Rain , Thunderstorm Heavy Rain
9:32 PM 71.6 °F 71.6 °F 100% 29.64 in 1.8 mi SE 5.8 mph - 0.36 in Rain , Thunderstorm Heavy Rain
9:37 PM 71.6 °F 71.6 °F 100% 29.64 in 2.0 mi South 3.5 mph - 0.37 in Rain Light Rain
9:39 PM 71.6 °F 71.6 °F 100% 29.64 in 3.0 mi South 4.6 mph - 0.37 in Rain Light Rain
9:53 PM 73.0 °F 71.1 °F 93% 29.59 in 5.0 mi SE 8.1 mph - 0.42 in Rain Light Rain
10:15 PM 73.4 °F 73.4 °F 100% 29.63 in 9.0 mi SE 10.4 mph 23.0 mph 0.00 in Rain Light Rain
10:25 PM 73.4 °F 73.4 °F 100% 29.62 in 9.0 mi SE 10.4 mph - 0.00 in   Overcast
10:42 PM 73.4 °F 73.4 °F 100% 29.62 in 10.0 mi SE 11.5 mph 19.6 mph 0.00 in Rain Light Rain
10:49 PM 73.4 °F 73.4 °F 100% 29.62 in 10.0 mi SE 12.7 mph 19.6 mph 0.00 in   Overcast
10:53 PM 73.9 °F 73.0 °F 97% 29.57 in 10.0 mi SE 12.7 mph 21.9 mph 0.00 in   Overcast
11:19 PM 73.4 °F 73.4 °F 100% 29.61 in 10.0 mi SE 10.4 mph 21.9 mph 0.01 in   Overcast
11:35 PM 73.4 °F 73.4 °F 100% 29.61 in 9.0 mi SE 10.4 mph 16.1 mph 0.01 in Rain Light Rain
11:53 PM 73.9 °F 72.0 °F 93% 29.56 in 5.0 mi SE 9.2 mph 18.4 mph 0.03 in Rain Light Rain